Estherville, IA

2:36 AM CDT on July 26, 2017 (GMT -0500)
Estherville Municipal

Weather History for KEST - January, 2012

Change the Weather History Date:

Wednesday, January 25, 2012

  Actual Average Record
Temperature  
Mean Temperature 27 °F 16 °F  
Max Temperature 32 °F 25 °F 64 °F (1981)
Min Temperature 21 °F 7 °F -20 °F (1961)
Degree Days  
Heating Degree Days 38 49  
Month to date heating degree days 1076 1238  
Since 1 July heating degree days 3762 4381  
Cooling Degree Days 0 0  
Month to date cooling degree days 0 0  
Year to date cooling degree days 0 0  
Moisture  
Dew Point 25 °F    
Average Humidity 92    
Maximum Humidity 100    
Minimum Humidity 84    
Precipitation  
Precipitation T in 0.02 in 0.77 in (1967)
Month to date precipitation 0.20 0.34  
Year to date precipitation 0.20  
Sea Level Pressure  
Sea Level Pressure 30.03 in    
Wind  
Wind Speed 10 mph (South)    
Max Wind Speed 17 mph    
Max Gust Speed 20 mph    
Visibility 4 miles    
Events Snow    
T = Trace of Precipitation, MM = Missing Value Source: NWS Daily Summary

Daily Weather History Graph

Daily Weather History Graph

Search for Another Location

Airport or City:

Trip Planner

Search our weather history database for the weather conditions in past years. The results will help you decide how hot, cold, wet, or windy it might be!

Date:

Astronomy

Jan. 25, 2012 Rise Set
Actual Time 7:42 AM CST 5:20 PM CST
Civil Twilight 7:11 AM CST 5:51 PM CST
Nautical Twilight 6:36 AM CST 6:26 PM CST
Astronomical Twilight 6:02 AM CST 7:00 PM CST
Moon 8:36 AM CST (1/25) 8:21 PM CST (1/25)
Length of Visible Light 10h 40m
Length of Day
9h 38m
Waxing Crescent, 7% of the Moon is Illuminated
Jan 25
Waxing Crescent
Jan 30
First Quarter
Feb 7
Full
Feb 14
Last Quarter
Feb 21
New

Hourly Weather History & Observations

Time (CST) Temp. Windchill Dew Point Humidity Pressure Visibility Wind Dir Wind Speed Gust Speed Precip Events Conditions
12:52 AM 24.1 °F 13.7 °F 21.9 °F 91% 30.29 in 6.0 mi South 10.4 mph - 0.00 in   Overcast
1:02 AM 24.8 °F 14.0 °F 21.2 °F 86% 30.24 in 3.0 mi South 11.5 mph - 0.00 in Snow Light Snow
1:42 AM 24.8 °F 15.3 °F 21.2 °F 86% 30.23 in 5.0 mi South 9.2 mph - 0.00 in   Overcast
1:52 AM 24.1 °F 13.7 °F 21.9 °F 91% 30.29 in 5.0 mi South 10.4 mph - 0.00 in   Overcast
2:52 AM 24.1 °F 16.0 °F 21.9 °F 91% 30.26 in 5.0 mi ESE 6.9 mph - N/A   Overcast
3:52 AM 21.0 °F 11.4 °F 19.0 °F 92% 30.24 in 5.0 mi SSE 8.1 mph - N/A   Mostly Cloudy
4:52 AM 23.0 °F 13.1 °F 21.0 °F 92% 30.24 in 5.0 mi SSE 9.2 mph - N/A   Overcast
5:52 AM 24.1 °F 17.0 °F 21.0 °F 88% 30.21 in 5.0 mi SE 5.8 mph - N/A   Overcast
7:16 AM 24.8 °F 19.1 °F 21.2 °F 86% 30.15 in 6.0 mi SSE 4.6 mph - N/A   Overcast
7:52 AM 24.1 °F 17.0 °F 21.9 °F 91% 30.19 in 5.0 mi SSE 5.8 mph - N/A   Overcast
8:52 AM 24.1 °F 14.4 °F 21.9 °F 91% 30.16 in 5.0 mi SSE 9.2 mph - N/A   Overcast
9:52 AM 24.1 °F 15.2 °F 21.9 °F 91% 30.14 in 4.0 mi South 8.1 mph - N/A   Clear
10:52 AM 26.1 °F 15.0 °F 23.0 °F 88% 30.13 in 5.0 mi South 12.7 mph - N/A   Clear
11:52 AM 28.0 °F 17.0 °F 25.0 °F 88% 30.11 in 5.0 mi South 13.8 mph - N/A   Clear
12:09 PM 28.4 °F 18.0 °F 24.8 °F 86% 30.06 in 5.0 mi SSW 12.7 mph - N/A   Mostly Cloudy
12:22 PM 28.4 °F 18.0 °F 24.8 °F 86% 30.05 in 4.0 mi South 12.7 mph - N/A   Mostly Cloudy
12:52 PM 28.9 °F 18.2 °F 25.0 °F 85% 30.08 in 4.0 mi SSW 13.8 mph - N/A   Overcast
1:52 PM 30.0 °F 21.1 °F 26.1 °F 85% 30.05 in 3.0 mi SW 10.4 mph - N/A   Overcast
2:11 PM 30.2 °F 21.3 °F 26.6 °F 86% 30.00 in 2.5 mi WSW 10.4 mph - N/A   Overcast
2:52 PM 30.0 °F 21.1 °F 27.0 °F 88% 30.05 in 2.5 mi SW 10.4 mph - N/A   Overcast
3:52 PM 30.0 °F 21.1 °F 27.0 °F 88% 30.01 in 2.5 mi South 10.4 mph - N/A   Overcast
4:52 PM 30.0 °F 20.0 °F 28.0 °F 92% 29.98 in 2.0 mi South 12.7 mph - N/A   Overcast
5:40 PM 30.2 °F 20.2 °F 28.4 °F 93% 29.92 in 4.0 mi South 12.7 mph - N/A   Overcast
5:52 PM 30.9 °F 21.7 °F 28.0 °F 89% 29.96 in 4.0 mi South 11.5 mph - N/A   Overcast
6:48 PM 30.2 °F 22.6 °F 28.4 °F 93% 29.91 in 4.0 mi SSW 8.1 mph - N/A   Mostly Cloudy
6:52 PM 30.9 °F 22.2 °F 28.0 °F 89% 29.96 in 4.0 mi SSW 10.4 mph - N/A   Mostly Cloudy
7:21 PM 30.2 °F 21.9 °F 28.4 °F 93% 29.91 in 3.0 mi South 9.2 mph - N/A   Mostly Cloudy
7:32 PM 28.4 °F 19.7 °F 26.6 °F 93% 29.91 in 3.0 mi South 9.2 mph - N/A   Scattered Clouds
7:52 PM 28.0 °F 19.3 °F 27.0 °F 96% 29.95 in 2.5 mi South 9.2 mph - N/A   Clear
8:52 PM 27.0 °F 18.0 °F 25.0 °F 92% 29.91 in 2.5 mi South 9.2 mph - N/A   Clear
9:14 PM 28.4 °F 19.1 °F 26.6 °F 93% 29.85 in 3.0 mi South 10.4 mph - N/A   Clear
9:33 PM 28.4 °F 18.5 °F 26.6 °F 93% 29.87 in 2.5 mi South 11.5 mph - N/A   Clear
9:52 PM 27.0 °F 17.3 °F 26.1 °F 96% 29.91 in 2.5 mi South 10.4 mph - N/A   Clear
10:00 PM 28.4 °F 18.0 °F 26.6 °F 93% 29.86 in 2.5 mi South 12.7 mph - N/A   Scattered Clouds
10:07 PM 28.4 °F 18.0 °F 26.6 °F 93% 29.86 in 1.8 mi South 12.7 mph - N/A   Mostly Cloudy
10:14 PM 28.4 °F 19.1 °F 26.6 °F 93% 29.86 in 0.8 mi South 10.4 mph - N/A   Mostly Cloudy
10:48 PM 28.4 °F 18.0 °F 28.4 °F 100% 29.85 in 1.2 mi South 12.7 mph - N/A   Overcast
10:52 PM 28.0 °F 17.5 °F 28.0 °F 100% 29.90 in 1.5 mi South 12.7 mph - N/A   Overcast
11:03 PM 28.4 °F 16.6 °F 28.4 °F 100% 29.84 in 2.0 mi South 16.1 mph - N/A   Scattered Clouds
11:27 PM 30.2 °F 19.3 °F 28.4 °F 93% 29.84 in 3.0 mi SSW 15.0 mph - N/A   Mostly Cloudy
11:52 PM 30.0 °F 20.5 °F 28.0 °F 92% 29.89 in 3.0 mi South 11.5 mph - N/A   Partly Cloudy